Regional Weather Roundup
Issued by NWS

Home | Current Version | Previous Version | Text Only | Print | Product List | Glossary Off
Versions: 1 2 3 4 5 6 7 8 9 10 11 12 13 14 15 16 17 18 19 20 21 22 23 24 25 26 27 28 29 30 31 32 33 34 35 36 37 38 39 40 41 42 43 44 45 46 47 48 49 50

000
ASUS43 KTOP 232008
RWRKS

WEATHER ROUNDUP FOR KANSAS
NATIONAL WEATHER SERVICE GOODLAND KS
300 PM CDT WED AUG 23 2017

NOTE:  "FAIR" INDICATES FEW OR NO CLOUDS BELOW 12,000 FEET WITH NO
SIGNIFICANT WEATHER AND/OR OBSTRUCTIONS TO VISIBILITY.

KSZ001>006-013>018-027>032-041>047-232100-
NORTHWEST KANSAS

CITY           SKY/WX    TMP DP  RH WIND       PRES   REMARKS
GOODLAND       SUNNY     82  62  50 S18       30.10F
HAYS           SUNNY     83  47  28 SE8       30.10F
HILL CITY      SUNNY     86  47  25 S14       30.11F
RUSSELL        SUNNY     84  46  26 S9G17     30.09F
$$

KSZ061>065-074>080-084>089-232100-
SOUTHWEST KANSAS

CITY           SKY/WX    TMP DP  RH WIND       PRES   REMARKS
DODGE CITY     SUNNY     84  47  27 S9        30.13F
ELKHART          N/A     79  65  62 SE12        N/A
GARDEN CITY    SUNNY     82  59  45 S14       30.13F
GREAT BEND     SUNNY     83  50  31 S9        30.11F
LIBERAL        MOSUNNY   80  64  58 SE5       30.13F
PRATT          SUNNY     80  48  32 S5        30.12F
$$

KSZ066>073-081>083-090>101-232100-
SOUTHEAST KANSAS

CITY           SKY/WX    TMP DP  RH WIND       PRES   REMARKS
CHANUTE        SUNNY     80  55  42 NE8       30.10F
COFFEYVILLE    SUNNY     82  55  39 E10       30.07F
HUTCHINSON     SUNNY     81  50  33 SE3       30.10F
MEDICINE LODGE   N/A     81  49  32 CALM      30.09F
NEWTON         SUNNY     81  53  37 SE7       30.11F
PARSONS        SUNNY     81  54  39 NE7       30.10F
WICHITA INTL   SUNNY     86  51  29 E8        30.08F
WICHITA JABRA  SUNNY     81  54  39 NE6       30.10F
WICHITA MCCONL SUNNY     83  48  28 NE5       30.09F
WINFIELD       SUNNY     81  54  39 VRB3      30.09F
$$

KSZ007>012-019>026-033>040-048>060-102>105-232100-
NORTHEAST KANSAS

CITY           SKY/WX    TMP DP  RH WIND       PRES   REMARKS
CONCORDIA      SUNNY     80  52  37 CALM      30.11F
EMPORIA        SUNNY     78  54  43 NE9       30.11F
LAWRENCE       SUNNY     79  58  48 N6        30.10F
MANHATTAN      SUNNY     80  55  42 E6        30.10F
MARYSVILLE     SUNNY     81  52  36 S6        30.11F
OLATHE IND     SUNNY     78  54  43 NE3       30.11F
OLATHE EXE     SUNNY     78  55  44 VRB7      30.10F
SALINA         SUNNY     86  45  23 VRB3      30.10F
TOPEKA BILLARD SUNNY     79  55  43 N3        30.10F
TOPEKA FORBES  SUNNY     80  55  42 E5        30.11F
$$




USA.gov is the U.S. government's official web portal to all federal, state and local government web resources and services.